COSMOS 2251 DEB, 35288

Orbit data source: Space-Track

COSMOS 2251 DEB, 35288 is space debris in LEO originally from a launch on Wed, 16 Jun 1993 UTC launched from the Plesetsk Missile And Space Complex (PKMTR). The debris from Iridium 33, an American commercial communications satellite, has been tracked extensively since its accidental collision with the defunct Russian satellite Cosmos 2251 in 2009. This event, occurring at high speed in low Earth orbit (LEO), generated thousands of pieces of space debris, significantly increasing the risk of further collisions. The Iridium 33 debris cloud has impacted space traffic management and orbital debris mitigation strategies, making it a subject of ongoing study in space situational awareness.

Loading next visibility...
Identifier
35288, 1993-036AJS
Orbit
LEO
Country
Flag of CISCIS
Related business
Manufacturer
Unknown
Mission
Spacecraft
Bus & Motor
Unknown
Mass
Unknown
Launch date (UTC)
1993-06-16 (33 years ago)
Launch vehicle
Unknown
Launch site
Plesetsk Missile And Space Complex (PKMTR)
Object type
Payload
Rocket body
Debris
Shape & HBR
Unknown shape, 0.1 m
Radar Cross Section
Small (<0.1 m²)

Expand to show TLE details & history
Last TLE update: 21 hours ago

TLE from 21 hours ago
0 COSMOS 2251 DEB
1 35288U 93036AJS 26145.46660019  .00004351  00000-0  76540-3 0  9995
2 35288  73.9498  57.7903 0037756 247.8408 111.8752 14.67468574902783
Epoch: 2026-05-25T11:11Z
TLE epoch observation values (Epoch: 2026-05-25T11:11:54.256Z)
Latitude
-0.00007°
Longitude
6.76023°
Altitude
681.807 km
Speed
7.511 km/s
True Right ascension
03h 51m 09s
True Declination
0° 00' 00"
Sunlit
Object was in daylight at epoch
Visualization orbit readout
Latitude
Unknown
Longitude
Unknown
Altitude
Unknown
Speed
Unknown
Apparent Right ascension
Unknown
Apparent Declination
Unknown
Sunlit
N/A
Visualization observer readout
Local Sidereal Time
17:18:11
Azimuth
Unknown
Elevation
Unknown
Doppler factor
Unknown
Orbital elements
Apogee altitude
693.356 km
Perigee altitude
640.159 km
Semi-major axis
7,044.895 km
Eccentricity
0.00378
Inclination
73.9498°
RAAN
57.7903°
Arg. of periapsis
247.8408°
True anomaly
112.27599°
Mean anomaly
111.8752°
Eccentric anomaly
112.07567°
Mean motion
3.67055 °/min
Orbital period
98.08 mins
BSTAR
0.0007654

Documentation

Showing up to 5 results
|